Track STARLINK-31225 now! 10-day predictions STARLINK-31225 is classified as:
1 59040U 24038T 24325.88846834 -.00002003 00000-0 -66737-4 0 9990 2 59040 42.9981 176.1011 0001181 255.0510 105.0210 15.25910596 42265